TimeEDT,TemperatureF,Dew PointF,Humidity,Sea Level PressureIn,VisibilityMPH,Wind Direction,Wind SpeedMPH,Gust SpeedMPH,PrecipitationIn,Events,Conditions,WindDirDegrees,DateUTC
12:52 AM,48.9,46.9,93,30.00,10.0,Calm,Calm,-,N/A,,Scattered Clouds,0,2013-09-26 04:52:00
1:43 AM,46.4,44.6,93,30.01,10.0,Calm,Calm,-,N/A,,Scattered Clouds,0,2013-09-26 05:43:00
1:52 AM,46.9,45.0,93,30.01,10.0,Calm,Calm,-,N/A,,Mostly Cloudy,0,2013-09-26 05:52:00
2:52 AM,48.0,48.0,100,30.01,6.0,Calm,Calm,-,N/A,,Overcast,0,2013-09-26 06:52:00
2:59 AM,48.2,46.4,93,30.01,8.0,Calm,Calm,-,N/A,,Overcast,0,2013-09-26 06:59:00
3:10 AM,48.2,48.2,100,30.01,10.0,Calm,Calm,-,N/A,,Overcast,0,2013-09-26 07:10:00
3:32 AM,48.2,46.4,93,30.01,10.0,Calm,Calm,-,N/A,,Overcast,0,2013-09-26 07:32:00
3:52 AM,48.9,46.9,93,30.02,10.0,Calm,Calm,-,N/A,,Overcast,0,2013-09-26 07:52:00
4:05 AM,48.2,48.2,100,30.01,6.0,Calm,Calm,-,N/A,,Overcast,0,2013-09-26 08:05:00
4:37 AM,48.2,46.4,93,30.02,2.5,Calm,Calm,-,N/A,,Overcast,0,2013-09-26 08:37:00
4:45 AM,48.2,46.4,93,30.02,10.0,Calm,Calm,-,N/A,,Overcast,0,2013-09-26 08:45:00
4:52 AM,48.9,46.9,93,30.02,9.0,Calm,Calm,-,N/A,,Overcast,0,2013-09-26 08:52:00
5:17 AM,48.2,46.4,93,30.02,1.8,Calm,Calm,-,N/A,,Overcast,0,2013-09-26 09:17:00
5:26 AM,48.2,46.4,93,30.02,2.5,Calm,Calm,-,N/A,,Overcast,0,2013-09-26 09:26:00
5:34 AM,48.2,46.4,93,30.02,5.0,Calm,Calm,-,N/A,,Overcast,0,2013-09-26 09:34:00
5:44 AM,48.2,48.2,100,30.03,9.0,Calm,Calm,-,N/A,,Overcast,0,2013-09-26 09:44:00
5:52 AM,48.0,46.0,93,30.03,10.0,Calm,Calm,-,N/A,,Overcast,0,2013-09-26 09:52:00
6:07 AM,48.2,46.4,93,30.03,9.0,Calm,Calm,-,N/A,,Overcast,0,2013-09-26 10:07:00
6:22 AM,48.2,46.4,93,30.03,1.8,Calm,Calm,-,N/A,,Overcast,0,2013-09-26 10:22:00
6:26 AM,48.2,46.4,93,30.03,1.2,Calm,Calm,-,N/A,,Overcast,0,2013-09-26 10:26:00
6:40 AM,46.4,46.4,100,30.04,0.5,Calm,Calm,-,N/A,Fog,Fog,0,2013-09-26 10:40:00
6:47 AM,46.4,46.4,100,30.04,0.2,Calm,Calm,-,N/A,Fog,Fog,0,2013-09-26 10:47:00
6:52 AM,46.9,46.9,100,30.05,0.2,West,3.5,-,N/A,Fog,Fog,280,2013-09-26 10:52:00
7:00 AM,46.4,44.6,93,30.04,0.5,Calm,Calm,-,N/A,Fog,Fog,0,2013-09-26 11:00:00
7:08 AM,46.4,44.6,93,30.05,0.2,Calm,Calm,-,N/A,Fog,Fog,0,2013-09-26 11:08:00
7:52 AM,46.0,46.0,100,30.07,0.2,Calm,Calm,-,N/A,Fog,Fog,0,2013-09-26 11:52:00
8:27 AM,46.4,44.6,93,30.07,0.8,Calm,Calm,-,N/A,,Mist,0,2013-09-26 12:27:00
8:32 AM,46.4,44.6,93,30.07,2.0,Calm,Calm,-,N/A,,Overcast,0,2013-09-26 12:32:00
8:39 AM,46.4,46.4,100,30.07,7.0,Calm,Calm,-,N/A,,Overcast,0,2013-09-26 12:39:00
8:52 AM,46.9,45.0,93,30.08,8.0,Calm,Calm,-,N/A,,Overcast,0,2013-09-26 12:52:00
9:39 AM,48.2,46.4,93,30.08,10.0,Calm,Calm,-,N/A,,Mostly Cloudy,0,2013-09-26 13:39:00
9:52 AM,51.1,46.0,83,30.09,10.0,Calm,Calm,-,N/A,,Scattered Clouds,0,2013-09-26 13:52:00
10:52 AM,57.0,41.0,55,30.08,10.0,Calm,Calm,-,N/A,,Clear,0,2013-09-26 14:52:00
11:52 AM,60.1,43.0,53,30.07,10.0,Calm,Calm,-,N/A,,Partly Cloudy,0,2013-09-26 15:52:00
12:52 PM,61.0,42.1,50,30.07,10.0,WSW,6.9,-,N/A,,Mostly Cloudy,240,2013-09-26 16:52:00
1:52 PM,64.0,43.0,46,30.05,10.0,Variable,6.9,-,N/A,,Scattered Clouds,0,2013-09-26 17:52:00
2:52 PM,66.0,43.0,43,30.05,10.0,Variable,4.6,-,N/A,,Mostly Cloudy,0,2013-09-26 18:52:00
3:52 PM,64.0,43.0,46,30.05,10.0,Variable,6.9,-,N/A,,Mostly Cloudy,0,2013-09-26 19:52:00
4:52 PM,64.0,44.1,48,30.05,10.0,Variable,4.6,-,N/A,,Mostly Cloudy,0,2013-09-26 20:52:00
5:52 PM,60.1,43.0,53,30.08,10.0,Calm,Calm,-,N/A,,Scattered Clouds,0,2013-09-26 21:52:00
6:52 PM,55.0,46.9,74,30.10,10.0,WSW,4.6,-,N/A,,Mostly Cloudy,240,2013-09-26 22:52:00
7:52 PM,50.0,46.9,89,30.12,10.0,Calm,Calm,-,N/A,,Clear,0,2013-09-26 23:52:00
8:52 PM,48.9,45.0,86,30.14,10.0,Calm,Calm,-,N/A,,Clear,0,2013-09-27 00:52:00
9:52 PM,46.9,44.1,90,30.15,10.0,Calm,Calm,-,N/A,,Clear,0,2013-09-27 01:52:00
10:52 PM,45.0,43.0,93,30.16,10.0,Calm,Calm,-,N/A,,Clear,0,2013-09-27 02:52:00
11:40 PM,44.6,42.8,93,30.16,10.0,Calm,Calm,-,N/A,,Partly Cloudy,0,2013-09-27 03:40:00
11:52 PM,44.1,42.1,93,30.17,10.0,Calm,Calm,-,N/A,,Scattered Clouds,0,2013-09-27 03:52:00